Torna al catalogo

DELTA 1 DEB

AttivoPO
NORAD 42632·DEBRIS·🇺🇸 United States

Lanciato Jun 12, 1975 da Vandenberg Space Force Base

Loading…

Prossimi Passaggi (prossime 24 ore)

TLE

AggiornatoSource: Space-Track

Epoca: Sep 13, 2026, 13:57 UTC

1 42632U 75052LR  26256.58154472  .00000162  00000-0  71692-3 0  9990
2 42632  99.5742 306.8422 0400795 201.6362 156.7368 12.70130511551542

Traccia DELTA 1 DEB in tempo reale con AllMySat

Download on the App Store